Location: *
(31.2983°S, 151.4094°E)
Time: 09:24:50
(UTC+00:00)

Cosmos 1634 Rocket - Pass Details

Date: 25 August 2019
Orbit: 960 x 992 km, 82.9° (Epoch: 17 September)

Event Time Altitude Azimuth Distance (km) Brightness Sun altitude
Rises 19:37:15 0° 347° (NNW) 3,685 7.0 -9.6°
Reaches altitude 10° 19:39:47 10° 343° (NNW) 2,746 6.3 -9.0°
Maximum altitude 19:46:02 63° 263° (W) 1,110 4.1 -7.7°
Drops below altitude 10° 19:52:21 10° 182° (S) 2,779 6.3 -6.4°
Sets 19:54:56 0° 178° (S) 3,733 7.0 -5.8°
